Weather History for KLVK - December, 2012

Change the Weather History Date:

Wednesday, December 26, 2012

  Actual Average Record
Temperature  
Mean Temperature 48 °F 46 °F  
Max Temperature 54 °F 55 °F 70 °F (1967)
Min Temperature 42 °F 37 °F 22 °F (1968)
Degree Days  
Heating Degree Days 17 19  
Month to date heating degree days 399 466  
Since 1 July heating degree days 758 938  
Cooling Degree Days 0 0  
Month to date cooling degree days 0 0  
Year to date cooling degree days 957 830  
Moisture  
Dew Point 43 °F    
Average Humidity 82    
Maximum Humidity 96    
Minimum Humidity 68    
Precipitation  
Precipitation 0.09 in 0.11 in 0.87 in (1936)
Month to date precipitation 4.22 2.19  
Year to date precipitation 15.28 15.22  
Since 1 July precipitation 8.22 5.32  
Sea Level Pressure  
Sea Level Pressure 29.96 in    
Wind  
Wind Speed 7 mph (WSW)    
Max Wind Speed 22 mph    
Max Gust Speed 26 mph    
Visibility 10 miles    
Events Rain    
T = Trace of Precipitation, MM = Missing Value Source: NWS Daily Summary

Daily Weather History Graph

Daily Weather History Graph

Search for Another Location

Airport or City:

Trip Planner

Search our weather history database for the weather conditions in past years. The results will help you decide how hot, cold, wet, or windy it might be!

Date:

Astronomy

Dec. 26, 2012 Rise Set
Actual Time 7:21 AM PST 4:55 PM PST
Civil Twilight 6:51 AM PST 5:24 PM PST
Nautical Twilight 6:18 AM PST 5:57 PM PST
Astronomical Twilight 5:46 AM PST 6:29 PM PST
Moon 3:52 PM PST (12/26) 5:49 AM PST (12/26)
Length of Visible Light 10h 32m
Length of Day
9h 34m
Waxing Gibbous, 98% of the Moon is Illuminated
Dec 26
Waxing Gibbous
Dec 28
Full
Jan 4
Last Quarter
Jan 11
New
Jan 18
First Quarter

Hourly Weather History & Observations

Time (PST) Temp. Windchill Dew Point Humidity Pressure Visibility Wind Dir Wind Speed Gust Speed Precip Events Conditions
12:13 AM 48.2 °F - 46.4 °F 93% 29.87 in 2.5 mi SW 8.1 mph - 0.05 in Rain Heavy Rain
12:23 AM 48.2 °F - 46.4 °F 93% 29.87 in 8.0 mi WSW 6.9 mph - 0.05 in Rain Light Rain
12:53 AM 48.0 °F - 45.0 °F 89% 29.87 in 10.0 mi SSW 4.6 mph - 0.05 in   Mostly Cloudy
1:13 AM 48.2 °F - 44.6 °F 87% 29.87 in 10.0 mi South 6.9 mph - N/A   Mostly Cloudy
1:40 AM 48.2 °F - 44.6 °F 87% 29.88 in 10.0 mi WSW 9.2 mph - N/A   Mostly Cloudy
1:53 AM 48.0 °F - 45.0 °F 89% 29.88 in 10.0 mi WSW 5.8 mph - N/A   Overcast
2:27 AM 48.2 °F - 44.6 °F 87% 29.89 in 10.0 mi SW 6.9 mph - 0.01 in Rain Light Rain
2:53 AM 46.9 °F - 45.0 °F 93% 29.89 in 10.0 mi SW 4.6 mph - 0.01 in   Mostly Cloudy
3:53 AM 46.9 °F - 43.0 °F 86% 29.89 in 10.0 mi Calm Calm - 0.00 in   Partly Cloudy
4:53 AM 45.0 °F 42.6 °F 42.1 °F 90% 29.90 in 10.0 mi WSW 4.6 mph - 0.01 in   Scattered Clouds
5:53 AM 46.0 °F - 43.0 °F 89% 29.91 in 10.0 mi Calm Calm - 0.00 in Rain Light Rain
6:53 AM 46.0 °F - 43.0 °F 89% 29.93 in 10.0 mi Calm Calm - 0.00 in   Overcast
7:20 AM 46.4 °F - 44.6 °F 93% 29.94 in 10.0 mi Calm Calm - N/A   Overcast
7:53 AM 46.9 °F - 43.0 °F 86% 29.95 in 10.0 mi WSW 4.6 mph - 0.01 in   Unknown
8:01 AM 46.4 °F 45.2 °F 42.8 °F 87% 29.95 in 10.0 mi SSW 3.5 mph - N/A   Mostly Cloudy
8:53 AM 48.0 °F - 44.1 °F 86% 29.96 in 10.0 mi SW 9.2 mph - 0.00 in   Mostly Cloudy
9:00 AM 48.2 °F - 44.6 °F 87% 29.96 in 10.0 mi SW 8.1 mph - N/A   Mostly Cloudy
9:53 AM 48.9 °F - 44.1 °F 83% 29.99 in 10.0 mi WSW 8.1 mph - 0.01 in   Mostly Cloudy
10:53 AM 51.1 °F - 45.0 °F 80% 29.99 in 10.0 mi West 12.7 mph - 0.00 in   Scattered Clouds
11:53 AM 53.1 °F - 45.0 °F 74% 29.97 in 10.0 mi WSW 15.0 mph - N/A   Mostly Cloudy
12:53 PM 54.0 °F - 45.0 °F 72% 29.96 in 10.0 mi WSW 13.8 mph - N/A   Mostly Cloudy
1:53 PM 53.1 °F - 44.1 °F 71% 29.96 in 10.0 mi WSW 17.3 mph - N/A   Mostly Cloudy
2:53 PM 51.1 °F - 41.0 °F 68% 29.97 in 10.0 mi West 17.3 mph - N/A   Mostly Cloudy
3:53 PM 51.1 °F - 43.0 °F 74% 29.99 in 10.0 mi WSW 11.5 mph - N/A   Mostly Cloudy
4:53 PM 50.0 °F - 43.0 °F 77% 30.01 in 10.0 mi West 6.9 mph - N/A   Mostly Cloudy
5:35 PM 48.2 °F - 42.8 °F 82% 30.02 in 10.0 mi SW 3.5 mph - N/A   Scattered Clouds
5:53 PM 48.0 °F - 42.1 °F 80% 30.02 in 10.0 mi WSW 5.8 mph - N/A   Scattered Clouds
6:53 PM 46.9 °F - 42.1 °F 83% 30.03 in 10.0 mi West 8.1 mph - N/A   Partly Cloudy
7:53 PM 45.0 °F 42.6 °F 42.1 °F 90% 30.04 in 10.0 mi SW 4.6 mph - N/A   Clear
8:53 PM 45.0 °F 41.8 °F 42.1 °F 90% 30.05 in 10.0 mi West 5.8 mph - N/A   Clear
9:53 PM 45.0 °F - 41.0 °F 86% 30.07 in 10.0 mi Calm Calm - N/A   Clear
10:53 PM 43.0 °F - 41.0 °F 93% 30.09 in 10.0 mi Calm Calm - N/A   Clear
11:53 PM 43.0 °F - 39.9 °F 89% 30.09 in 10.0 mi Calm Calm - N/A   Clear